www.pogodaiklimat.ru

Погода и климат >> Архив погоды >> Пакистан >> Кот Адду


ПОГОДА в Кот Адду

  • Прогноз погоды в Кот Адду
  • Монитор погоды в Кот Адду

АРХИВ ПОГОДЫ в Кот Адду

Время (UTC), дата Ветер
(напр.,м/с)
 
Видим.   Явления Облачность Т
(С)
Тd
(С)
f
(%)
Тe
(С)
Тes
(С)
Комфортность P
(гПа)
Po
(гПа)
Тmin
(С)
Tmax
(С)
R
(мм)
R24
(мм)
S
(см)
06 18.08 штиль 0 4000 м 4/0
[Ac trans]
+33.0 +27.6 73 +52 +71 опасность
перегрева
1002.5 987.9
09 18.08 штиль 0 4000 м 5/0
[Ac trans]
+35.0 +28.3 68 +56 +72 опасность
перегрева
1001.3 986.9
12 18.08 штиль 0 4000 м 8/3 1200 м
[Sc Ac trans]
+35.0 +28.3 68 +56 +58 опасность
перегрева
999.6 987.0 +37.0
21 18.08 штиль 0 4000 м ясно +26.0 +23.1 84 +35 +35 очень
душно
1002.8 987.9
00 19.08 штиль 0 4000 м 4/0
[Ac trans]
+26.5 +24.4 88 +37 +37 очень
душно
1003.3 989.0
03 19.08 штиль 0 4000 м ясно +27.5 +25.4 88 +40 +47 очень
душно
1005.7 991.6 +25.3
06 19.08 штиль 0 4000 м ясно +31.0 +24.6 69 +44 +68 опасность
перегрева
1006.8 992.1
09 19.08 штиль 0 4000 м ясно +33.5 +25.1 62 +48 +70 опасность
перегрева
1005.7 991.1
12 19.08 штиль 0 4000 м ясно +34.5 +26.3 62 +51 +55 опасность
перегрева
1004.1 991.0 +35.0
15 19.08 штиль 0 4000 м ясно +32.0 +26.5 73 +49 +49 опасность
перегрева
1004.3 989.7
18 19.08 штиль 0 4000 м ясно +31.0 +26.9 79 +48 +48 опасность
перегрева
1005.4 990.7
21 19.08 штиль 0 4000 м ясно +30.0 +26.5 82 +46 +46 опасность
перегрева
1005.0 990.3
00 20.08 штиль 0 4000 м ясно +29.0 +26.2 85 +44 +44 опасность
перегрева
1005.7 991.5
03 20.08 штиль 0 4000 м ясно +30.0 +25.8 78 +45 +51 опасность
перегрева
1006.1 992.1 +27.3
06 20.08 штиль 0 4000 м ясно +35.0 +26.8 63 +53 +77 опасность
перегрева
1005.3 990.8
09 20.08 ЮВ 2 4000 м 3/3 1200 м
[Cu hum]
+36.5 +27.0 58 +54 +65 опасность
перегрева
1004.2 989.8
12 20.08 штиль 0 4000 м 4/0
[Ac trans]
+37.0 +28.3 61 +58 +61 опасность
перегрева
1001.3 989.1 +37.3
15 20.08 ЮВ 2 4000 м 8/3 1200 м
[Sc Ac As]
+33.0 +24.6 61 +46 +46 опасность
перегрева
1001.2 986.7
18 20.08 штиль 0 4000 м ясно +30.5 +24.1 69 +42 +42 опасность
перегрева
1002.0 987.3
21 20.08 штиль 0 4000 м ясно +29.5 +24.5 75 +42 +42 опасность
перегрева
1001.4 986.7
00 21.08 штиль 0 4000 м ясно +28.0 +23.7 77 +38 +38 очень
душно
1001.7 987.6
03 21.08 штиль 0 4000 м ясно +29.0 +24.8 78 +41 +48 опасность
перегрева
1002.0 988.2 +26.8
06 21.08 штиль 0 4000 м ясно +34.5 +24.7 57 +48 +72 опасность
перегрева
1001.9 987.4
09 21.08 штиль 0 4000 м ясно +38.0 +25.6 49 +52 +74 опасность
перегрева
1000.7 986.4
12 21.08 штиль 0 4000 м ясно +38.5 +27.0 52 +56 +60 опасность
перегрева
998.8 986.8 +39.0
15 21.08 штиль 0 4000 м ясно +34.0 +27.9 71 +55 +55 опасность
перегрева
999.6 985.1
18 21.08 штиль 0 4000 м ясно +31.5 +26.7 76 +49 +49 опасность
перегрева
1000.8 986.2
21 21.08 штиль 0 4000 м ясно +30.0 +26.5 82 +46 +46 опасность
перегрева
1000.4 985.7
00 22.08 штиль 0 4000 м ясно +29.0 +26.2 85 +44 +44 опасность
перегрева
1000.9 987.2
03 22.08 ЮЗ 1 4000 м ясно +30.0 +26.5 82 +46 +52 опасность
перегрева
1001.8 988.3 +28.8
06 22.08 штиль 0 4000 м ясно +35.0 +27.6 66 +55 +79 опасность
перегрева
1000.2 989.2
12 22.08 ЮВ 3 4000 м 4/0
[Ac trans]
+36.0 +27.9 63 +56 +58 опасность
перегрева
999.2 987.1 +38.0
15 22.08 штиль 0 4000 м осадки на расстоянии 5/1 750 м
[Cb cap Ac trans]
+31.0 +23.9 66 +43 +43 опасность
перегрева
1000.6 986.0
18 22.08 штиль 0 4000 м 4/0
[Ac trans]
+28.5 +20.2 61 +35 +35 очень
душно
1002.8 989.1
21 22.08 штиль 0 4000 м ясно +28.0 +20.5 64 +35 +35 очень
душно
1001.8 987.0
00 23.08 СЗ 2 4000 м ясно +26.0 +22.3 80 +34 +34 очень
душно
1002.4 988.0
03 23.08 штиль 0 4000 м ясно +28.5 +23.5 74 +39 +45 очень
душно
1003.7 989.5 +25.5
06 23.08 штиль 0 4000 м ясно +35.0 +23.7 52 +46 +70 опасность
перегрева
1003.0 990.3
09 23.08 штиль 0 4000 м ясно +37.0 +23.6 46 +47 +69 опасность
перегрева
1001.3 987.0
12 23.08 штиль 0 4000 м ясно +38.0 +24.0 45 +49 +53 опасность
перегрева
1000.4 988.4 +38.5
15 23.08 штиль 0 4000 м ясно +33.0 +26.1 67 +49 +49 опасность
перегрева
1000.5 986.0
18 23.08 штиль 0 4000 м ясно +32.0 +25.4 68 +46 +46 опасность
перегрева
1001.7 988.0
21 23.08 штиль 0 4000 м ясно +29.0 +24.8 78 +41 +41 опасность
перегрева
1000.9 986.2
00 24.08 штиль 0 4000 м ясно +28.5 +25.7 85 +42 +42 опасность
перегрева
1001.2 987.5
03 24.08 ЮВ 2 4000 м ясно +30.5 +25.6 75 +45 +49 опасность
перегрева
1002.0 988.6 +28.0
06 24.08 ЮВ 2 4000 м ясно +34.5 +27.0 65 +52 +70 опасность
перегрева
1002.6 990.0
09 24.08 ЮВ 2 4000 м ясно +37.5 +27.4 57 +56 +72 опасность
перегрева
1001.2 986.9
12 24.08 Ю 3 4000 м ясно +37.0 +26.8 56 +54 +57 опасность
перегрева
999.1 986.9 +38.5
15 24.08 Ю 2 4000 м ясно +33.0 +26.1 67 +49 +49 опасность
перегрева
1000.0 985.5
18 24.08 штиль 0 4000 м ясно +31.0 +24.6 69 +44 +44 опасность
перегрева
1000.9 987.6
21 24.08 штиль 0 4000 м ясно +30.0 +24.3 72 +42 +42 опасность
перегрева
1000.4 985.7
00 25.08 ЮВ 2 4000 м ясно +28.5 +25.0 81 +41 +41 опасность
перегрева
1000.8 987.1

 

Местоположение метеостанции Кот Адду (Пакистан): широта 30.45 долгота 70.95 высота над уровнем моря 131 м.

В архиве по умолчанию представлена погода в Кот Адду за последнюю неделю. Архивные данные за месяц целиком и за предыдущие месяцы, начиная с января 2011 года, Вы можете получить, выбрав интересующий диапазон дат из раскрывающегося списка и нажав кнопку "Ввод!".


*Определитесь, кто Вы:
робот инопланетянин человек

Внимание! Время в таблицах - всемирное. Для получения местного времени необходимо прибавить поправку, которая равна 5 ч.

Смотрите также архив погоды в соседних городах и на ближайших метеорологических станциях:

Погода в Мултане (Пакистан) (54 км)
Погода в Дера Гази Хан (Пакистан) (54 км)
Погода в Леяхе (Пакистан) (63 км)
Погода в Ханевале (Пакистан) (93 км)
Погода на Авиабазе Raifiqui (Пакистан) (125 км)
Погода в Бхаккаре (Пакистан) (131 км)
Погода в Бархане (Пакистан) (134 км)
Погода в Бахавалпуре (Пакистан) (142 км)
Погода а Бахавалпур аэропорту (Пакистан) (142 км)
Погода в Дера-Исмаил-Хане (Пакистан) (152 км)

Пояснения к столбцам:

Ветер - указаны скорость ветра в м/с - средняя за 10 мин, порывы в срок и между сроками (в фигурных скобках) и направление, откуда дует ветер: С - северный, СВ - северо-восточный, В - восточный, ЮВ - юго-восточный, Ю - южный, ЮЗ - юго-западный, З - западный, СЗ - северо-западный.
Видимость - горизонтальная дальность видимости в метрах или километрах. При видимости от 1 до 10 км при отсутствии осадков обычно наблюдается дымка, при ухудшении видимости до 1 км и менее - туман. В сухую погоду видимость может ухудшаться дымом, пылью или мглою.
Явления - указаны атмосферные явления, наблюдавшиеся в срок или в последний час перед сроком; фигурными скобками обозначены явления, наблюдавшиеся между сроками (за 1-3 часа до срока); квадратными скобками обозначены град или гололедные отложения с указанием их диаметра в мм.
Облачность - указаны через наклонную черту общая и нижняя облачность в баллах и высота нижней границы облаков в метрах; квадратными скобками обозначены формы облаков: Ci - перистые, Cs - перисто-слоистые, Cc - перисто-кучевые, Ac - высококучевые, As - высокослоистые, Sc - слоисто-кучевые, Ns - слоисто-дождевые, Cu - кучевые, Cb - кучево-дождевые. Подробнее классификацию облаков см. в Атласе облаков (PDF).
T - Температура воздуха - температура, измеренная на высоте 2 м над землей.
Td - Температура точки росы - температура, при понижении до которой содержащийся в воздухе водяной пар достигнет насыщения.
f - Относительная влажность воздуха - влажноcть воздуха, измеренная на высоте 2 м над землей.
Te - Эффективная температура - температура, которую ощущает одетый по сезону человек в тени. Характеристика душности погоды. При расчете учитывается влияние влажности воздуха и скорости ветра на теплоощущения человека.
Tes - Эффективная температура на солнце - температура, которую ощущает человек, с поправкой на солнечный нагрев. Характеристика знойности погоды. Зависит от высоты солнца над горизонтом, облачности и скорости ветра. Ночью, в пасмурную погоду, а также при ветре 12 м/с и более поправка равна нулю.
P - Атмосферное давление - приведенное к уровню моря атмосферное давление.
Po - Атмосферное давление - измеренное на уровне метеостанции атмосферное давление.
Tmin - Минимальная температура - минимум температуры воздуха на высоте 2 м над землей.
Tmax - Максимальная температура - максимум температуры воздуха на высоте 2 м над землей.
R - Количество осадков - Количество выпавших осадков за период времени, мм. При наведении курсора мыши на число - период времени, за который выпало указанное количество осадков.
R24 - Количество осадков - Количество выпавших осадков за 24 часа, мм.
S - Снежный покров - Высота снежного покрова, см. При наведении курсора мыши на число - состояние снежного покрова и степень покрытия местности в баллах.